Wind_Speed
97 98 99 100 101 102 103 103 104 105 104 104 105 105 105 104 104 107 111 110 109 108 107 106 106 104 103 103 104 103 102 102 102 102 102 101 101 101 100 99 98 97 96 94 94 94 94 92 90 88 86 83 80 78 78 77 76 75 72 69 67 69 70 67 63 61 60 59 54 45 44 49 51 48 47 50 51 50 51 53 57 64 67 71 75 72 64
99 101 102 103 104 104 105 106 107 108 108 108 109 109 109 108 109 112 115 115 114 112 111 111 112 110 108 108 108 107 106 106 106 106 106 105 105 105 105 104 104 103 101 100 98 98 99 97 94 93 91 88 85 84 83 83 81 79 75 73 71 70 70 69 68 65 62 62 56 45 41 46 50 49 48 49 50 50 52 53 56 60 60 64 72 72 67
102 103 104 105 106 107 108 109 110 111 111 112 112 112 112 112 113 116 119 120 118 116 115 116 117 116 114 113 112 111 111 111 111 110 109 109 109 109 108 108 109 108 106 104 102 103 104 102 99 97 95 93 91 90 89 89 87 83 80 78 77 75 73 73 73 69 64 62 60 55 52 51 51 52 51 49 50 52 54 54 56 56 54 57 65 70 70
104 105 106 107 108 109 110 111 112 113 114 115 115 116 115 115 116 119 122 123 121 120 120 120 121 121 119 117 115 115 115 115 115 115 114 114 114 113 111 111 113 112 110 108 107 108 109 107 103 101 100 99 98 97 96 94 91 88 85 83 83 82 79 76 73 70 67 64 64 65 64 56 51 52 54 51 50 52 55 56 55 51 52 55 56 60 69
107 108 109 110 111 112 113 114 115 116 117 118 118 118 118 117 118 121 124 124 124 124 124 124 125 124 123 121 119 119 120 120 120 120 120 119 119 118 116 116 117 116 113 112 112 112 113 111 108 106 104 102 102 101 100 99 96 92 89 87 87 87 86 80 74 71 70 68 68 69 68 62 53 51 54 54 53 53 54 54 51 50 54 55 50 50 60
110 111 112 113 114 116 117 118 118 119 120 120 121 120 120 119 120 122 124 125 126 127 128 129 129 128 126 125 123 122 123 124 124 125 126 125 123 122 121 121 120 119 117 117 116 115 115 115 113 111 107 104 104 102 100 100 99 96 92 89 89 90 89 84 78 74 72 72 72 70 69 68 58 50 51 53 54 55 53 49 48 52 56 52 47 49 53
112 114 115 116 117 119 120 121 122 123 123 124 124 124 124 123 124 125 125 126 127 129 131 132 131 131 129 127 126 124 125 126 127 128 129 129 128 126 125 124 124 122 121 121 120 119 118 118 117 114 110 108 107 105 102 102 103 101 97 94 93 92 90 88 83 79 77 76 74 70 70 72 66 53 50 52 53 54 53 49 48 53 55 50 48 52 54
115 116 117 118 119 120 122 123 124 125 126 127 127 127 127 127 128 128 129 129 129 130 132 134 134 133 131 130 129 127 127 128 129 130 131 131 130 129 128 127 127 126 125 125 125 123 121 121 120 118 114 111 110 108 107 107 107 107 103 99 97 94 93 93 90 86 83 78 74 72 72 73 74 64 52 49 51 53 53 52 51 51 53 51 50 52 53
117 118 119 120 121 122 123 125 126 127 128 129 130 130 131 131 132 132 132 132 133 134 135 136 137 137 136 135 134 132 132 131 131 132 133 132 133 133 132 130 129 128 128 128 128 127 125 124 123 121 118 116 114 112 110 111 111 111 109 105 102 99 97 98 97 94 87 79 75 75 73 75 80 72 54 45 50 54 53 51 50 49 50 51 52 51 49
121 122 123 123 124 125 126 127 128 129 130 131 132 132 132 133 134 134 133 134 134 135 136 137 137 138 138 139 138 136 135 134 134 135 135 135 136 136 136 134 132 131 131 131 130 130 129 127 125 123 121 119 117 115 114 115 115 114 113 111 108 105 102 102 102 97 89 82 78 77 79 82 78 66 57 57 59 58 54 51 49 48 50 52 53 51 47
122 122 121 122 122 122 122 123 123 124 124 125 125 126 126 126 127 127 127 127 128 129 130 130 131 132 133 134 134 132 130 130 130 131 132 133 135 136 137 136 135 135 136 135 135 135 133 131 128 126 124 122 120 118 117 118 118 117 117 116 113 110 107 106 106 102 93 87 83 82 84 83 71 62 68 73 68 60 57 54 49 48 50 53 53 52 50
115 114 112 111 110 109 108 108 108 108 108 108 108 108 108 108 109 109 109 110 111 112 113 114 115 116 117 118 118 117 115 116 117 117 118 121 123 126 128 130 131 133 135 137 138 138 137 135 132 129 127 125 124 122 121 121 121 120 120 119 118 115 112 111 110 107 99 92 89 88 87 79 70 70 77 77 70 65 62 58 53 52 54 56 56 55 53
105 102 100 98 96 95 94 93 92 92 91 91 90 90 90 90 90 90 90 91 92 93 93 94 95 96 97 98 98 97 97 98 99 100 101 103 106 110 113 116 118 121 126 130 133 134 134 134 133 131 129 127 126 124 123 123 124 124 123 122 121 119 117 115 114 112 105 98 95 94 88 79 75 76 78 78 76 73 68 62 60 60 62 61 59 56 53
93 90 88 86 84 83 82 81 81 80 80 80 79 79 78 78 78 78 78 78 80 80 80 80 81 81 82 82 82 82 83 84 85 86 87 88 92 96 99 101 103 107 112 117 120 122 124 126 128 129 128 127 127 126 125 125 126 126 125 124 123 122 121 119 118 116 110 103 100 96 90 85 81 79 79 81 81 78 72 67 64 64 67 64 57 52 49
82 80 78 76 74 73 72 71 70 69 69 69 68 68 68 68 68 68 68 69 71 71 71 71 71 70 71 72 72 73 73 74 75 76 77 77 80 85 88 90 92 95 100 104 106 108 111 115 119 121 122 123 124 124 125 126 126 126 126 125 125 124 123 122 122 119 114 107 103 99 94 89 84 82 82 84 84 81 76 71 69 69 69 64 55 50 49
73 71 69 67 66 64 63 62 61 61 60 60 59 59 58 59 59 60 60 60 62 63 62 62 62 63 64 65 65 66 67 67 68 68 68 68 71 75 78 79 81 85 89 93 95 97 100 103 107 111 113 116 118 119 121 124 125 126 127 127 127 126 125 125 123 119 115 110 105 101 96 89 85 85 85 85 87 84 78 76 75 71 66 63 56 50 49
67 65 64 62 61 60 59 58 57 56 55 55 54 53 52 52 53 53 53 53 54 55 55 54 55 57 59 59 60 60 61 62 62 62 62 62 64 68 70 70 71 73 77 80 83 86 90 94 97 101 103 105 108 111 115 119 122 124 126 127 127 126 125 124 123 119 115 111 107 102 96 90 87 87 86 87 89 85 81 80 77 68 64 64 60 54 52
63 61 60 59 58 57 56 54 54 53 52 51 50 49 48 49 48 48 48 47 49 50 48 48 50 53 53 54 54 55 56 56 56 57 57 58 60 63 64 63 64 66 68 70 72 76 80 83 88 92 94 96 99 103 107 112 117 120 122 124 125 125 124 123 123 121 117 113 108 103 99 94 90 88 88 89 90 87 83 80 75 68 66 67 64 59 57
58 56 55 55 53 52 51 50 49 48 48 47 46 45 45 44 44 44 43 43 45 45 43 44 48 49 48 49 49 49 50 51 51 52 53 54 57 58 58 58 58 59 61 63 66 68 71 74 78 82 86 88 92 95 99 104 109 112 115 119 121 122 121 121 123 122 118 113 109 105 101 98 93 90 90 90 90 88 83 78 72 67 67 67 65 60 56
52 50 49 48 47 46 46 45 43 42 42 42 41 41 40 40 39 39 39 40 41 41 40 42 45 45 44 44 44 44 45 45 46 47 48 50 51 52 53 53 54 55 57 59 61 62 64 67 71 75 78 81 85 89 93 97 101 104 109 113 116 117 118 118 120 119 115 112 110 106 102 99 95 92 92 91 91 89 83 77 73 71 68 66 64 60 56
46 45 43 42 42 41 40 39 38 38 37 37 36 36 35 35 35 35 35 36 37 37 37 39 41 40 39 39 39 39 40 41 41 42 43 45 47 48 49 49 50 52 53 55 57 58 59 62 65 69 72 75 78 83 88 92 95 100 105 109 111 113 114 114 114 113 112 111 109 105 102 100 99 97 95 93 91 88 81 75 73 71 67 62 58 57 57
41 41 40 39 38 37 36 35 34 33 33 32 32 31 31 31 30 31 31 32 32 32 33 35 36 35 35 35 35 36 36 36 36 37 39 40 42 44 45 46 47 48 49 51 53 54 56 59 62 65 69 71 73 78 84 89 93 99 103 107 109 110 111 110 108 107 108 109 106 101 97 96 95 95 95 92 89 85 80 75 73 70 66 62 58 58 60
39 38 37 35 34 33 32 31 30 29 28 28 27 27 26 26 26 27 27 27 27 28 29 30 30 30 30 31 31 31 31 32 33 34 35 36 39 40 41 42 43 44 45 47 50 52 54 57 59 62 65 69 71 75 81 86 92 97 100 103 105 106 106 105 104 103 103 104 103 97 93 90 87 86 86 85 84 84 81 77 74 71 68 66 63 61 60
36 35 33 32 30 29 28 27 26 25 23 23 22 22 22 21 22 22 23 23 23 23 24 25 26 26 27 27 27 28 28 29 30 31 32 33 35 35 36 38 39 40 41 44 46 49 51 53 55 59 63 67 70 74 79 84 89 93 96 97 99 100 100 99 98 99 100 100 99 92 84 81 77 73 73 73 74 75 76 74 73 71 68 66 64 62 58
33 32 30 28 26 24 23 22 21 20 19 18 17 17 17 16 17 18 18 19 19 20 21 22 23 23 24 24 24 24 25 25 26 27 29 30 31 31 33 35 36 37 39 41 44 47 49 51 53 56 60 64 68 71 75 81 85 88 90 91 93 95 95 93 93 94 95 95 95 89 79 70 60 53 57 64 66 67 69 70 70 69 65 63 64 63 59
30 29 27 25 23 20 19 17 17 16 15 14 13 12 12 12 12 13 14 15 15 16 17 18 19 19 19 20 20 21 22 23 24 25 26 27 29 30 31 32 33 35 37 39 41 44 46 47 50 52 57 61 64 66 70 75 79 82 84 86 88 89 90 90 90 90 89 88 88 87 83 76 64 52 52 61 67 67 66 65 64 63 59 59 62 62 58
28 26 24 23 20 18 16 15 14 13 11 10 9 8 8 8 8 8 9 10 10 11 12 13 14 15 15 16 16 17 19 20 22 23 25 26 28 29 29 30 32 34 36 37 39 41 42 43 45 48 52 56 59 60 64 69 72 76 78 80 82 84 85 86 86 85 86 85 82 77 77 79 73 59 50 55 63 67 66 62 59 57 56 57 60 59 55
26 24 23 21 19 17 15 14 12 12 10 9 7 6 6 6 5 5 5 5 6 7 9 10 11 12 12 13 14 16 17 18 19 21 23 24 26 27 28 29 31 32 34 35 37 39 40 41 42 45 49 53 55 57 60 64 67 70 73 74 76 79 80 80 80 80 81 81 78 71 67 66 62 51 42 44 50 56 59 57 55 56 56 57 57 56 53
25 23 21 20 19 17 16 14 13 12 11 9 8 7 6 5 4 3 2 2 4 6 7 8 9 10 10 12 13 15 16 17 18 19 21 23 24 25 27 28 29 31 32 33 35 37 38 38 40 43 47 51 53 54 57 60 62 65 67 67 69 72 74 74 74 75 74 74 74 69 62 56 51 45 42 44 46 47 51 55 56 57 58 57 55 53 52
24 23 22 21 20 18 17 16 15 14 13 11 9 8 7 5 4 3 1 0 2 4 5 6 7 8 9 11 12 14 15 16 17 19 20 22 23 24 25 27 28 29 30 32 34 35 37 39 41 45 48 48 49 50 53 56 58 60 60 61 63 66 67 67 68 69 68 67 67 65 59 54 50 46 43 47 49 49 49 53 56 58 58 56 54 52 50
24 23 22 22 21 20 19 18 16 15 13 12 10 9 8 7 6 4 3 3 3 3 4 4 6 7 9 10 12 14 15 16 17 19 20 22 23 24 25 27 28 29 31 32 34 36 39 41 44 46 47 47 48 49 51 52 55 56 56 58 60 61 62 62 63 63 61 60 60 59 58 55 53 49 47 48 50 51 50 51 55 58 57 55 53 51 50
24 23 23 22 22 21 20 18 17 15 14 13 12 11 10 9 8 7 7 7 6 6 6 6 7 8 9 11 13 15 17 18 19 20 22 23 25 26 27 28 30 31 32 34 36 37 39 41 42 43 44 45 46 47 48 49 51 51 52 54 56 56 56 57 57 57 56 56 55 56 56 53 49 49 51 52 51 50 50 50 52 54 54 52 50 50 49
24 24 23 23 22 21 21 20 18 17 16 15 14 13 12 11 10 10 10 9 9 9 9 9 9 11 12 13 15 17 19 20 21 22 24 25 26 28 29 30 31 32 33 35 36 37 38 39 39 40 41 43 43 44 46 47 48 48 49 51 52 52 54 56 57 57 56 55 54 54 54 52 49 48 51 52 51 48 48 50 50 50 50 50 49 48 47
25 24 24 23 22 22 21 21 20 18 17 16 15 14 14 13 13 12 12 12 11 11 11 11 12 13 15 16 17 20 22 23 24 25 26 27 28 30 31 31 32 33 34 36 37 37 37 37 38 39 40 41 43 45 47 47 48 49 51 52 54 55 56 57 58 59 59 59 59 57 56 57 57 55 53 51 49 46 45 48 50 49 49 49 48 46 45
25 24 24 23 22 22 22 22 21 20 18 17 16 16 15 15 14 14 14 13 13 13 14 14 15 16 18 20 22 24 25 26 27 27 28 29 30 32 33 33 34 34 35 36 37 37 37 38 39 40 42 45 47 49 50 52 53 55 56 57 58 59 59 58 59 60 62 64 64 62 59 59 62 63 61 57 52 47 45 46 48 48 48 47 46 45 43
24 24 23 22 22 21 22 22 21 20 19 19 18 18 17 16 16 16 16 15 15 15 16 17 18 20 21 24 26 28 29 29 30 30 31 32 33 34 36 37 37 37 37 38 38 39 40 41 42 44 47 50 52 54 56 57 58 59 59 59 60 61 61 61 61 61 61 62 61 59 57 56 59 62 62 59 53 48 46 44 44 44 44 43 42 41 40
24 23 23 22 21 21 22 22 21 20 20 20 20 19 19 19 19 19 18 18 18 18 20 21 23 23 26 29 30 31 32 33 33 33 34 36 37 38 39 40 41 40 40 41 41 43 44 45 47 50 53 56 58 59 59 59 59 59 59 59 61 62 62 62 61 59 58 59 59 58 58 57 57 58 57 53 50 48 45 41 39 38 38 37 38 37 37
24 23 22 21 21 21 21 22 21 21 20 20 20 21 20 21 21 21 22 22 22 22 24 26 27 29 31 33 34 35 36 36 37 38 39 40 41 42 43 44 44 44 43 44 45 47 49 51 54 56 58 60 60 60 59 59 59 58 57 57 59 60 60 59 59 59 58 58 60 60 60 58 58 58 55 52 52 50 46 41 38 37 37 37 37 35 35
23 23 22 21 21 21 22 22 22 21 20 20 21 21 21 22 23 24 25 26 26 27 28 30 32 34 37 38 38 39 40 41 41 42 44 45 46 47 47 48 48 47 46 46 48 50 53 55 57 59 59 59 59 59 59 58 57 55 54 53 54 55 56 55 57 60 61 60 61 62 62 61 60 60 57 54 53 51 48 45 43 42 42 41 40 38 36
23 22 22 21 21 21 21 21 22 21 21 22 21 21 22 24 26 28 29 30 31 32 33 34 36 39 41 41 42 43 44 45 46 47 48 49 51 52 52 51 50 50 49 48 50 53 54 56 57 58 56 55 56 57 57 56 54 52 52 51 51 52 53 54 55 58 59 60 62 63 63 61 59 56 54 52 50 47 45 44 45 44 43 42 41 39 37
23 22 21 20 20 20 20 21 21 22 22 23 23 23 24 26 28 30 33 35 36 38 39 40 41 42 43 44 46 46 47 47 48 49 51 53 55 56 54 52 51 51 51 51 52 53 54 54 55 54 53 52 53 53 52 51 51 51 52 52 53 53 54 55 56 57 57 59 61 63 63 60 54 50 49 48 47 43 40 39 41 41 40 39 39 38 37
22 21 20 20 20 20 20 20 21 22 23 24 25 25 26 28 30 32 35 38 40 42 43 44 45 45 46 47 48 48 47 47 48 50 52 55 57 57 56 54 53 53 53 53 54 53 52 52 52 51 50 50 50 49 48 47 48 51 52 52 53 53 53 54 56 56 56 57 59 61 62 60 56 53 51 49 46 43 40 38 38 39 39 39 39 37 37
20 19 21 21 21 20 20 20 21 22 22 24 26 26 28 30 32 34 36 38 41 43 45 46 48 48 49 49 49 48 47 46 47 49 50 51 54 56 54 54 54 54 54 55 55 53 51 51 51 50 50 50 50 49 48 47 48 50 51 51 52 52 52 53 54 55 56 57 57 57 59 60 59 57 55 52 49 45 42 40 39 40 40 41 41 39 37
17 20 22 22 20 20 21 21 21 22 23 24 25 26 28 31 35 36 36 38 42 45 47 48 50 51 51 50 49 48 47 46 46 46 45 45 48 50 50 51 53 54 53 55 55 52 50 52 52 52 52 53 52 51 49 47 47 48 49 50 51 52 52 52 53 55 56 57 56 55 55 57 58 57 56 54 51 47 45 43 43 42 42 43 44 43 41
17 20 22 20 19 20 20 20 20 22 23 24 25 27 28 32 36 38 38 40 44 48 49 50 51 52 52 50 49 48 47 45 44 43 41 40 42 44 46 49 51 51 51 53 53 50 49 51 51 52 53 54 54 53 51 49 47 47 48 51 53 55 55 55 55 54 54 55 56 55 54 54 55 56 56 55 53 51 49 48 47 47 46 47 47 48 46
18 20 21 20 20 20 20 20 20 21 23 25 27 28 29 32 37 40 41 43 47 49 50 50 51 52 51 50 48 47 46 44 43 41 39 38 37 37 40 43 46 47 49 51 51 49 48 48 49 52 55 56 54 54 53 51 50 49 50 52 56 58 60 60 59 56 54 53 54 55 54 53 53 54 55 55 55 54 54 53 51 50 50 51 52 52 51
18 19 20 21 21 20 19 19 20 21 23 25 28 29 29 32 37 41 44 46 48 50 50 50 50 50 49 48 47 45 44 42 41 40 39 37 35 33 34 37 41 44 47 48 48 48 47 46 48 53 57 58 56 56 55 53 53 53 54 56 58 61 62 62 61 60 58 56 54 54 54 53 52 53 54 54 55 55 56 56 55 54 52 52 52 53 52
18 19 21 22 21 20 19 20 21 22 23 25 28 29 30 32 35 40 44 46 48 49 51 51 50 48 47 46 44 43 42 41 40 39 38 36 33 31 31 32 35 39 42 44 44 45 44 42 44 51 57 59 59 59 58 56 56 57 58 59 61 62 62 61 60 60 60 59 56 54 53 53 53 53 53 54 55 56 56 56 57 57 56 54 53 53 55
17 18 20 21 20 20 20 22 22 23 24 25 26 29 31 32 34 38 43 46 47 48 49 50 49 48 47 45 42 41 39 39 38 37 37 36 34 33 34 34 35 36 39 40 41 41 40 38 39 46 53 56 58 59 60 60 60 60 60 61 63 64 63 60 57 57 58 59 58 56 55 54 54 54 55 55 56 56 56 56 57 58 58 57 56 57 59
17 16 17 19 20 19 20 22 23 24 24 25 26 27 29 31 33 37 41 45 47 47 47 47 47 47 45 43 41 40 39 38 38 38 37 35 34 33 34 36 37 39 40 41 41 42 41 38 38 42 48 51 54 55 57 59 60 61 60 61 63 64 64 62 58 57 58 59 59 59 58 58 57 58 58 59 59 58 58 59 60 60 61 61 60 60 62
16 14 15 17 18 17 19 21 23 24 24 25 26 26 27 30 33 35 38 42 44 45 46 46 46 46 44 42 41 40 38 37 37 37 35 34 34 34 34 35 38 40 42 42 43 43 42 40 40 41 45 48 51 53 54 55 57 59 60 60 62 63 64 63 61 60 60 60 60 60 60 60 60 61 61 62 61 61 61 61 61 61 63 63 63 63 64
16 14 14 15 15 16 18 21 22 23 24 25 25 25 25 27 29 31 34 38 41 43 44 44 45 44 43 42 41 39 37 36 35 35 34 35 35 34 34 35 37 39 41 41 41 40 40 40 40 41 43 46 49 52 54 54 55 56 58 59 60 61 63 63 63 62 62 62 62 62 63 63 63 63 63 64 63 63 63 63 63 63 63 63 63 63 64
Wind_Direction
270 270 269 269 268 268 267 267 266 266 265 265 265 264 264 263 263 264 263 262 262 262 262 263 263 263 263 264 265 265 265 265 265 265 266 266 266 266 267 266 266 265 265 265 265 266 267 267 268 268 268 267 267 267 266 265 264 264 264 263 262 261 264 269 270 267 267 269 267 259 256 261 262 259 257 257 255 254 252 247 245 244 241 236 235 234 230
271 271 270 269 269 268 267 267 266 266 266 265 265 265 264 264 264 264 264 263 262 261 262 262 262 262 262 262 263 263 264 264 264 264 265 265 266 266 267 267 266 266 266 266 266 267 267 266 267 267 267 268 268 267 266 265 264 264 264 264 262 261 262 265 267 268 268 271 272 265 256 259 263 261 257 256 255 253 251 249 245 244 244 241 237 235 233
272 272 271 270 269 269 268 267 267 266 266 266 265 265 265 265 264 264 264 263 263 262 261 261 261 261 260 260 261 262 263 263 263 263 264 264 264 264 265 265 266 266 266 266 266 266 265 265 265 266 267 267 266 265 264 264 265 266 266 265 264 262 261 261 265 271 273 272 273 270 263 257 256 258 256 253 253 252 251 250 247 244 246 246 241 237 234
273 273 272 271 270 270 269 268 268 267 267 267 266 266 265 265 265 264 264 264 263 263 262 261 261 261 260 260 260 261 261 262 262 262 262 262 262 262 263 263 264 264 264 264 264 264 264 265 265 265 265 265 265 266 267 268 268 269 268 267 265 264 262 261 264 268 270 268 266 266 266 261 255 256 258 255 255 255 253 251 250 248 247 247 244 240 237
274 273 273 272 271 271 270 270 269 269 268 268 267 267 266 265 265 265 265 265 265 264 263 263 262 261 261 261 260 260 261 261 261 261 260 260 260 260 260 260 261 262 262 262 262 262 263 264 264 264 264 265 266 267 269 270 269 268 267 266 264 263 263 264 263 262 262 262 261 262 265 266 259 254 256 256 256 257 256 252 253 253 249 245 245 245 241
275 274 274 273 273 272 272 271 271 270 270 270 269 268 268 267 266 265 265 265 265 265 265 264 263 263 262 262 261 260 260 260 260 260 260 259 259 259 259 259 259 260 260 260 260 260 261 262 263 263 263 264 264 264 265 265 266 265 263 262 261 261 263 264 262 258 256 256 258 260 263 266 263 254 252 255 256 258 259 255 252 254 252 248 247 247 244
276 275 275 274 274 273 273 273 272 272 272 271 271 270 270 269 268 267 266 266 266 265 265 265 264 264 263 262 262 261 260 260 259 259 259 259 258 258 258 258 258 258 258 258 258 258 259 259 260 261 261 261 261 261 261 261 261 262 261 259 258 259 262 263 261 258 255 254 257 259 260 264 265 258 253 255 257 259 261 257 251 251 253 251 250 250 247
277 277 276 275 275 274 274 274 273 273 273 272 272 271 271 270 269 269 268 267 267 266 266 266 266 265 264 263 262 261 260 259 259 259 259 259 259 258 257 257 257 257 257 257 257 257 257 257 258 259 259 258 259 259 259 259 259 260 260 258 257 258 259 262 261 259 258 257 258 259 259 261 264 263 258 256 259 259 259 258 254 251 251 252 252 252 251
279 279 278 277 276 276 275 275 274 274 273 272 272 271 271 270 270 269 268 268 267 267 266 266 266 266 265 264 263 262 261 260 259 259 259 258 258 258 257 257 256 256 256 256 256 256 255 255 255 256 256 256 256 256 257 257 258 259 259 258 256 256 258 261 262 260 260 259 258 258 258 257 260 263 262 259 260 259 257 257 257 256 254 253 253 254 255
281 280 280 279 278 277 276 275 275 274 273 273 272 271 271 270 270 269 268 268 267 267 266 266 266 265 265 265 264 263 262 261 260 259 258 258 258 257 257 256 256 255 255 255 254 254 254 254 253 254 254 254 254 254 255 255 256 257 258 258 257 257 258 260 261 260 259 257 255 255 255 254 258 265 267 263 261 259 258 257 257 259 259 256 253 251 251
283 282 281 280 279 278 277 276 275 274 274 273 272 272 271 270 270 269 269 268 267 267 266 266 265 265 264 264 263 263 262 261 260 259 258 257 257 256 256 255 254 254 254 253 253 253 252 252 251 251 251 252 252 252 252 253 254 254 256 257 257 257 258 258 259 259 257 254 253 252 252 255 261 265 263 261 260 259 259 257 255 256 259 259 256 251 247
286 285 284 283 282 281 279 278 277 276 275 274 273 272 271 270 269 269 268 267 267 266 265 265 264 264 263 263 262 262 261 260 259 258 257 256 255 254 254 253 252 251 251 251 250 250 250 250 250 249 249 249 249 250 250 250 251 252 253 254 255 256 257 257 257 257 255 252 250 249 251 256 259 258 258 260 261 260 258 257 257 258 260 261 261 258 253
289 288 287 286 284 283 282 280 279 278 277 276 274 273 272 271 270 269 268 267 266 265 264 264 263 262 261 261 261 260 259 258 257 256 254 253 252 252 251 250 249 249 248 248 247 247 247 247 247 247 247 247 247 247 247 248 248 249 250 251 252 254 255 255 256 256 255 252 250 251 254 256 254 253 255 258 259 259 258 258 259 262 262 262 261 260 259
291 290 289 288 286 285 283 282 280 279 278 277 275 274 273 272 271 270 269 268 267 266 265 263 262 262 261 261 260 259 258 256 255 253 252 250 249 248 248 247 246 245 245 245 245 244 244 244 244 244 243 243 244 244 244 245 246 246 247 248 250 251 252 253 254 255 254 252 251 252 253 252 250 250 253 256 257 258 258 258 259 261 262 261 259 256 256
294 292 291 289 288 286 285 283 281 280 278 277 275 274 273 272 271 269 268 267 266 265 264 263 263 262 261 260 259 258 256 255 253 252 250 249 247 247 246 245 243 243 242 242 242 242 242 241 241 241 240 239 239 240 240 241 242 243 244 245 246 247 249 250 251 252 253 252 251 251 251 251 252 252 252 254 255 256 256 257 258 258 260 261 259 256 253
296 295 293 292 290 289 288 286 284 282 280 279 277 275 273 272 270 268 267 265 264 263 262 261 261 260 258 257 256 256 255 254 253 252 251 249 247 247 246 244 242 241 240 240 240 239 239 238 238 238 237 236 236 236 237 238 239 240 241 242 242 244 245 247 249 250 251 251 250 250 250 250 250 250 250 251 252 253 253 255 256 257 259 261 261 261 260
299 298 297 295 294 293 291 289 288 286 284 282 280 278 276 273 271 269 267 265 264 262 260 259 258 256 255 254 253 253 252 252 252 251 250 249 247 247 246 244 242 240 239 239 238 237 236 236 235 235 235 234 233 232 233 234 236 237 238 239 240 241 243 245 246 247 247 247 247 248 249 248 247 247 249 249 249 250 251 253 256 259 261 263 264 264 265
301 300 298 297 295 294 292 290 289 287 286 284 282 280 277 275 273 271 269 266 264 262 260 258 256 254 252 252 251 250 250 250 249 248 248 247 246 246 245 244 242 240 239 238 236 235 233 233 232 232 232 230 229 228 229 231 232 234 235 237 238 239 240 242 244 244 244 243 244 245 246 246 245 245 246 247 248 250 252 255 258 260 262 265 267 267 266
301 299 298 296 295 294 292 291 289 287 286 284 282 280 278 276 274 272 270 267 265 262 260 258 255 253 252 251 250 250 249 249 248 246 245 244 244 244 244 243 242 240 238 237 235 233 231 230 229 229 229 227 226 225 225 226 228 230 232 234 236 237 238 239 241 242 242 241 242 243 244 244 244 243 244 246 249 251 253 256 258 260 262 265 267 266 264
301 300 298 297 296 295 293 292 290 288 287 285 283 281 280 278 276 273 271 268 265 262 259 256 255 254 252 251 251 250 249 248 247 246 244 243 243 242 241 240 239 237 235 234 233 231 229 228 227 226 226 224 223 222 222 223 224 225 228 230 233 234 236 237 238 240 240 240 240 240 241 242 242 242 243 245 248 251 254 256 258 259 262 264 264 262 259
305 304 303 301 300 298 296 295 293 291 289 287 286 284 282 280 277 274 270 267 265 262 258 255 255 254 253 252 251 249 249 248 247 245 243 242 240 239 237 235 235 233 232 231 230 228 226 225 224 223 223 221 220 219 219 219 220 221 223 226 228 231 233 234 236 237 239 239 238 238 239 241 241 242 243 246 248 252 255 256 257 258 259 259 258 256 251
311 310 309 307 305 303 300 298 296 294 291 289 288 285 283 281 278 275 271 267 263 260 257 255 255 254 254 253 251 250 249 248 246 244 242 240 238 236 234 232 231 230 228 227 226 224 222 221 221 220 219 219 217 216 216 216 216 217 220 222 224 227 229 231 232 233 235 238 238 238 239 241 243 245 247 249 251 253 255 256 257 257 256 255 255 253 249
317 315 313 311 308 305 303 301 298 295 292 290 288 286 283 281 278 275 271 267 263 259 256 255 254 253 252 252 250 249 248 246 243 241 239 237 236 234 232 229 227 226 225 223 222 220 219 218 217 215 215 215 213 212 213 214 214 216 217 219 221 224 226 228 228 229 231 234 236 236 236 239 242 246 249 250 252 253 254 254 255 254 254 254 255 253 248
320 318 316 314 311 308 305 302 300 297 294 291 289 286 283 280 277 274 271 267 262 259 255 253 251 249 248 247 246 245 243 241 238 236 233 233 232 231 230 227 224 222 221 219 218 217 215 214 213 211 212 212 211 210 210 211 213 215 216 217 219 221 223 225 226 227 228 231 232 231 231 234 238 243 247 248 249 250 250 251 252 253 254 254 252 248 245
323 321 320 319 316 312 309 307 304 301 298 295 292 288 284 280 275 271 266 262 259 256 253 250 247 244 244 242 241 240 238 235 233 231 229 228 227 226 225 223 220 218 216 215 215 213 212 210 209 208 209 210 210 209 209 210 212 213 214 215 216 218 221 222 223 224 226 228 229 228 226 226 227 233 240 242 242 244 246 247 250 252 252 250 246 242 241
327 326 326 324 322 319 317 316 313 309 305 301 297 292 288 281 274 267 263 259 256 253 250 248 245 242 240 238 236 234 231 228 225 223 222 221 219 217 216 215 213 213 212 211 211 211 210 208 207 206 206 208 210 209 208 209 210 211 213 214 214 216 218 219 221 222 224 226 227 226 225 223 220 224 238 243 242 244 244 244 245 247 245 242 239 238 238
334 333 332 332 331 330 330 330 328 324 321 317 312 307 301 292 282 274 269 262 256 250 247 245 241 237 233 230 228 227 225 222 219 216 214 213 212 210 208 206 206 207 207 206 206 206 206 206 204 202 203 206 208 208 207 208 209 210 211 212 212 213 215 216 218 219 221 222 224 224 225 225 222 225 237 243 242 242 242 240 238 238 236 234 233 234 235
340 340 341 342 344 345 346 347 348 346 343 342 341 339 335 325 311 298 283 269 256 246 240 235 230 226 222 218 216 214 213 213 212 211 209 207 205 202 199 198 199 201 201 201 200 199 200 200 199 197 199 202 204 204 205 206 207 209 210 210 209 210 212 214 215 216 218 220 220 221 222 223 219 219 229 237 237 236 234 232 230 230 231 230 229 230 233
348 349 351 354 357 359 1 4 5 5 4 5 8 10 8 1 350 335 312 274 247 233 223 218 212 209 207 206 205 204 201 199 199 201 200 198 195 193 192 192 193 194 194 193 194 193 192 192 192 191 194 198 200 201 202 204 205 206 207 207 206 207 208 210 211 213 215 217 218 218 219 216 212 213 224 234 235 233 228 224 223 226 228 227 226 228 231
355 358 2 5 7 10 13 15 17 17 18 19 22 26 29 31 32 27 24 235 213 208 201 196 192 191 192 192 191 192 190 187 186 189 189 186 184 183 184 184 184 185 185 185 186 186 185 184 185 187 191 194 196 198 199 201 202 203 202 201 201 202 203 204 207 209 211 212 213 215 214 210 205 206 218 229 234 235 230 223 222 226 227 225 224 227 230
3 8 10 13 15 18 20 22 24 27 29 32 35 39 44 51 61 71 87 109 127 140 151 162 169 172 175 176 177 177 175 173 173 176 176 175 173 173 174 175 175 175 176 177 178 178 179 181 182 185 187 188 190 193 195 196 197 198 196 194 194 196 196 198 201 203 204 206 207 207 207 205 203 204 213 224 231 236 235 228 225 226 226 224 224 227 230
11 15 17 19 21 23 26 28 30 34 38 43 47 51 56 62 70 81 92 100 105 112 123 136 147 154 159 163 165 164 161 160 161 163 165 166 165 164 166 167 168 168 169 170 172 173 175 178 180 181 182 183 185 187 189 190 191 190 188 187 187 188 189 191 192 193 195 197 198 197 197 198 202 208 215 221 227 232 234 232 228 226 226 225 226 227 230
18 20 22 24 25 28 30 33 34 38 42 47 53 58 63 67 73 80 87 95 104 111 119 128 136 140 144 150 154 153 150 149 151 154 157 158 157 158 159 160 161 162 163 164 166 168 170 172 173 175 176 177 178 179 180 180 180 178 177 177 178 178 179 180 181 183 184 184 186 190 195 200 206 211 216 219 224 228 231 230 229 227 227 227 227 228 231
23 25 27 29 30 33 36 38 40 42 45 50 56 62 67 72 78 83 87 95 104 110 116 124 129 132 135 140 144 144 142 143 147 149 151 152 152 152 153 153 154 156 158 159 160 161 162 164 165 167 168 168 168 169 169 168 166 165 166 167 167 169 171 172 175 176 177 178 184 193 200 206 211 213 214 216 220 224 227 228 228 228 228 228 229 230 232
29 31 32 34 37 40 42 45 47 48 50 54 59 65 71 77 82 87 91 98 106 111 116 119 122 126 131 134 135 135 135 137 142 144 145 145 145 145 146 146 146 148 151 152 153 153 154 156 157 158 159 160 160 160 159 157 156 158 160 161 163 166 168 170 173 175 177 182 190 197 202 206 210 212 213 215 217 221 225 227 229 229 229 229 230 231 232
33 35 37 39 43 46 49 52 54 54 56 59 62 66 71 77 82 87 91 97 103 109 113 116 119 124 128 129 129 130 132 133 135 136 137 138 138 138 138 139 140 142 144 145 146 147 149 150 151 152 154 154 154 153 152 152 154 157 159 162 165 167 169 172 175 177 182 189 196 200 204 207 210 212 213 215 216 219 222 225 226 226 226 227 228 228 230
36 39 41 43 47 51 54 57 59 60 62 66 68 71 74 79 84 89 93 96 100 106 112 115 118 123 125 126 127 128 129 129 129 130 132 132 132 133 134 136 137 138 140 141 143 145 146 147 148 150 151 151 150 151 152 154 158 160 163 166 170 171 174 177 180 183 188 195 200 204 206 209 211 212 214 216 218 219 219 219 220 220 221 223 224 226 229
39 42 45 48 51 55 58 61 63 65 67 71 75 78 81 86 89 92 96 99 102 107 112 116 120 122 123 124 125 126 125 125 127 128 128 127 128 129 132 133 134 136 138 141 143 145 146 147 149 150 150 151 152 155 157 160 162 164 167 171 174 176 179 182 185 187 192 197 201 204 207 209 211 214 216 218 219 220 218 217 219 222 222 222 223 226 231
43 45 49 52 56 59 62 65 67 69 70 73 78 82 87 91 93 95 99 102 106 110 115 119 122 123 123 123 124 124 123 124 125 125 125 125 127 130 132 133 134 137 140 142 145 146 147 149 151 152 153 156 158 160 162 164 166 168 172 175 178 180 183 186 189 191 193 196 200 203 206 208 212 214 215 216 218 219 219 219 220 223 226 228 229 230 232
47 49 52 56 61 65 68 71 74 75 75 76 80 84 89 94 97 101 104 107 110 114 117 120 123 124 123 123 123 123 123 123 123 123 125 127 130 132 134 136 138 140 142 144 147 148 150 152 154 156 158 161 163 165 166 168 170 172 175 178 180 183 187 190 192 194 196 199 203 205 207 209 211 212 213 214 214 215 217 218 218 221 226 229 229 229 231
51 54 57 61 65 69 73 77 81 82 83 84 85 89 93 98 103 108 111 113 116 118 120 121 123 124 124 123 123 123 124 124 125 126 128 131 134 137 138 140 142 144 145 147 149 151 153 156 158 160 162 164 166 168 169 171 175 177 179 180 183 187 190 193 194 196 198 202 205 207 208 209 210 210 212 213 212 212 215 218 220 223 226 227 225 227 233
56 60 64 67 70 74 78 82 85 88 91 93 94 96 101 106 111 115 118 120 122 123 123 123 124 124 124 123 122 122 123 125 126 129 132 136 140 143 146 147 147 147 149 151 152 153 156 159 161 163 165 167 169 170 172 176 180 182 183 183 185 189 193 196 197 199 201 205 207 209 209 210 210 210 211 213 215 217 220 222 224 226 228 228 229 232 236
61 66 69 72 75 78 82 86 89 92 96 99 101 104 110 113 116 120 123 125 125 126 126 125 125 124 123 122 121 121 123 125 127 129 133 140 146 150 153 153 152 152 153 155 155 155 158 162 165 167 169 171 172 174 175 179 183 186 186 187 188 190 194 198 201 204 206 209 210 210 210 212 213 215 216 218 220 221 222 221 221 224 228 231 233 236 235
65 69 72 76 80 83 86 90 93 97 99 102 105 109 114 118 120 124 127 127 127 126 126 126 125 124 123 122 122 122 123 124 127 130 134 141 148 154 158 159 158 157 158 158 157 158 162 165 168 171 174 175 176 177 178 181 185 188 190 191 192 194 196 199 203 206 209 212 213 213 212 213 216 218 220 222 222 221 220 220 221 224 229 233 237 239 237
65 72 77 81 83 85 88 91 96 100 103 106 108 112 116 120 124 127 129 129 128 128 128 127 126 125 125 124 123 123 124 125 127 131 135 140 148 156 163 166 164 162 162 161 162 165 168 170 172 175 178 179 180 180 180 181 184 189 193 196 197 198 199 200 203 206 210 213 215 216 215 215 217 219 221 224 226 226 227 227 227 230 233 236 239 240 240
67 76 82 84 84 86 90 94 98 103 106 109 112 116 120 125 128 131 131 131 130 130 130 129 129 128 128 127 127 127 127 127 130 132 135 139 146 154 162 166 168 168 167 167 169 172 174 176 180 182 182 182 184 185 185 185 187 190 194 198 200 201 202 202 202 205 208 211 215 216 217 217 219 221 222 225 228 230 232 232 233 235 238 239 239 240 240
67 76 82 84 86 89 94 98 101 104 107 111 116 120 124 129 133 135 135 135 134 133 133 132 133 134 134 134 134 133 133 135 138 140 140 141 145 151 157 164 170 173 173 174 176 179 181 184 189 190 188 187 189 190 191 193 195 196 198 200 201 202 203 204 205 207 209 211 214 216 218 219 222 224 225 227 229 231 234 235 236 238 239 240 240 240 240
68 78 85 89 92 95 97 99 102 105 109 115 120 124 128 134 138 139 139 139 139 138 137 137 138 139 140 139 139 140 141 144 147 148 146 145 148 152 155 160 167 173 176 179 182 184 186 191 197 198 195 193 194 195 197 199 202 203 204 204 203 203 203 206 208 211 213 214 215 217 218 221 222 224 227 228 230 232 234 236 237 239 239 238 240 243 245
70 82 90 94 97 100 102 103 105 107 110 117 122 127 133 139 143 143 143 143 143 143 142 142 143 145 144 144 144 146 147 149 152 153 151 150 151 153 154 157 163 170 175 178 182 185 187 192 199 203 202 200 199 200 202 203 205 206 207 208 207 206 205 207 210 214 216 217 218 219 220 222 223 224 226 229 230 231 232 234 236 239 240 240 241 245 249
71 80 89 94 98 102 104 105 106 107 113 120 127 133 138 144 147 148 148 149 149 148 147 147 148 149 148 147 148 150 151 152 154 155 154 153 153 156 159 162 165 168 172 176 181 185 189 194 199 204 205 204 203 202 204 205 207 208 209 210 210 210 209 209 212 215 218 219 220 221 222 223 224 226 228 230 231 232 234 235 237 239 242 243 244 246 250
72 74 82 91 96 100 102 105 106 109 116 125 133 139 144 148 151 153 154 154 154 153 153 152 152 153 153 153 154 155 156 157 159 160 159 158 159 160 163 166 168 171 175 179 184 189 193 198 202 205 207 207 205 204 203 205 207 208 210 211 212 213 212 212 213 216 219 221 222 223 224 225 226 227 229 231 232 233 236 238 240 241 244 246 247 248 250
72 73 77 84 91 96 99 103 108 113 118 126 134 141 146 151 156 158 159 160 160 159 158 157 158 159 160 161 161 161 161 163 165 168 168 167 166 166 167 171 175 178 182 185 189 193 197 202 205 208 211 211 210 208 206 205 206 209 211 213 214 215 216 216 216 218 220 222 223 224 225 226 227 228 229 231 233 235 237 239 242 244 245 247 248 249 250
Height
10703 10701 10699 10697 10695 10694 10692 10691 10690 10689 10691 10691 10690 10691 10691 10693 10697 10688 10677 10682 10690 10691 10697 10700 10698 10703 10709 10707 10706 10711 10714 10715 10716 10717 10717 10720 10721 10720 10724 10729 10730 10731 10737 10741 10741 10741 10744 10749 10754 10759 10765 10773 10781 10786 10786 10788 10791 10793 10798 10805 10808 10805 10804 10812 10823 10826 10827 10829 10835 10842 10845 10841 10840 10845 10847 10844 10847 10851 10852 10854 10854 10854 10862 10870 10872 10881 10895
10687 10684 10682 10680 10678 10676 10675 10673 10672 10671 10672 10673 10672 10672 10674 10676 10678 10671 10659 10660 10670 10676 10680 10681 10678 10684 10692 10691 10690 10695 10698 10699 10700 10701 10702 10705 10708 10707 10708 10711 10711 10714 10720 10725 10731 10732 10729 10735 10744 10746 10751 10760 10768 10772 10772 10774 10778 10783 10790 10794 10796 10799 10801 10802 10808 10816 10821 10822 10826 10835 10841 10840 10837 10838 10839 10838 10840 10842 10842 10844 10846 10848 10856 10862 10866 10877 10888
10670 10667 10664 10662 10659 10658 10656 10654 10653 10652 10651 10653 10652 10653 10656 10658 10659 10653 10641 10639 10649 10657 10660 10660 10658 10663 10669 10672 10676 10680 10681 10683 10683 10685 10689 10692 10692 10691 10694 10696 10694 10697 10705 10711 10719 10717 10711 10719 10732 10735 10740 10747 10750 10754 10756 10760 10765 10772 10780 10783 10783 10788 10794 10794 10796 10806 10815 10817 10819 10823 10827 10831 10832 10830 10831 10832 10832 10832 10833 10836 10839 10847 10853 10853 10858 10871 10877
10652 10649 10645 10643 10641 10639 10637 10635 10633 10632 10631 10631 10631 10632 10636 10639 10639 10633 10622 10621 10629 10635 10637 10638 10637 10641 10646 10653 10663 10666 10664 10665 10666 10668 10673 10674 10671 10674 10684 10684 10676 10679 10691 10697 10701 10699 10693 10703 10719 10724 10727 10731 10734 10737 10742 10749 10756 10763 10768 10771 10770 10772 10779 10786 10791 10798 10805 10809 10810 10809 10810 10819 10827 10827 10825 10826 10826 10826 10826 10829 10837 10846 10848 10846 10853 10862 10864
10633 10630 10626 10623 10621 10619 10617 10614 10612 10611 10609 10608 10608 10610 10613 10617 10619 10612 10604 10604 10609 10611 10612 10613 10614 10618 10625 10634 10644 10647 10645 10647 10649 10647 10648 10652 10654 10659 10667 10666 10659 10664 10676 10680 10684 10684 10680 10688 10701 10707 10713 10721 10726 10730 10732 10734 10741 10750 10755 10757 10756 10756 10763 10776 10786 10790 10794 10798 10799 10797 10798 10807 10819 10822 10821 10821 10821 10820 10821 10826 10836 10839 10836 10841 10850 10851 10851
10613 10610 10606 10603 10600 10598 10595 10593 10590 10589 10587 10585 10585 10587 10589 10593 10595 10590 10586 10588 10590 10587 10585 10586 10588 10594 10602 10610 10621 10626 10626 10626 10628 10625 10623 10630 10637 10640 10645 10648 10647 10651 10660 10662 10666 10671 10671 10674 10682 10690 10702 10711 10715 10719 10722 10719 10722 10731 10739 10743 10743 10742 10750 10764 10774 10780 10784 10785 10788 10790 10791 10796 10806 10813 10816 10816 10816 10815 10818 10825 10831 10827 10826 10837 10843 10839 10841
10592 10589 10585 10582 10579 10576 10572 10570 10567 10566 10564 10561 10561 10563 10564 10566 10568 10566 10564 10566 10568 10564 10560 10559 10561 10567 10575 10583 10593 10603 10604 10602 10604 10604 10602 10605 10613 10618 10623 10629 10632 10636 10643 10644 10647 10656 10660 10660 10665 10676 10690 10698 10699 10705 10709 10705 10703 10710 10720 10727 10729 10732 10740 10750 10759 10767 10772 10774 10779 10785 10786 10786 10792 10801 10808 10811 10812 10813 10815 10819 10822 10819 10820 10830 10833 10830 10834
10569 10566 10563 10559 10556 10553 10549 10546 10543 10541 10539 10537 10536 10537 10538 10538 10539 10539 10538 10540 10544 10542 10537 10534 10533 10539 10547 10555 10563 10571 10576 10577 10578 10580 10580 10583 10589 10594 10601 10609 10613 10618 10626 10628 10628 10638 10646 10648 10653 10662 10674 10683 10687 10691 10693 10689 10687 10693 10703 10710 10714 10721 10730 10736 10743 10751 10759 10767 10773 10776 10779 10779 10780 10787 10799 10807 10809 10809 10808 10809 10812 10813 10817 10823 10824 10824 10830
10546 10542 10539 10535 10532 10529 10525 10521 10518 10514 10512 10511 10510 10509 10511 10510 10508 10509 10510 10514 10516 10514 10511 10509 10509 10513 10518 10522 10529 10536 10543 10549 10553 10554 10557 10561 10566 10568 10573 10586 10594 10598 10605 10608 10610 10618 10627 10633 10639 10646 10657 10667 10672 10677 10680 10676 10674 10678 10685 10692 10698 10707 10717 10724 10727 10734 10748 10762 10765 10765 10770 10770 10767 10777 10794 10801 10800 10799 10800 10802 10805 10809 10813 10816 10816 10819 10826
10521 10517 10513 10509 10506 10502 10498 10494 10491 10487 10484 10483 10482 10481 10482 10481 10479 10478 10481 10486 10486 10483 10483 10484 10485 10488 10488 10489 10494 10502 10511 10518 10522 10527 10531 10535 10540 10542 10546 10559 10572 10576 10579 10585 10591 10597 10602 10611 10622 10631 10640 10649 10656 10664 10667 10663 10662 10665 10669 10675 10683 10693 10704 10710 10711 10720 10738 10750 10752 10755 10755 10751 10759 10779 10789 10786 10785 10789 10794 10798 10801 10804 10805 10805 10807 10814 10820
10495 10490 10486 10482 10477 10473 10470 10466 10463 10459 10456 10455 10454 10452 10452 10452 10451 10449 10452 10457 10457 10454 10455 10457 10458 10460 10461 10460 10463 10471 10480 10487 10490 10497 10504 10506 10511 10517 10520 10529 10541 10548 10551 10558 10565 10570 10575 10588 10602 10613 10622 10630 10638 10649 10651 10648 10651 10655 10656 10660 10667 10677 10689 10695 10696 10707 10725 10734 10739 10740 10736 10741 10765 10781 10773 10766 10773 10782 10787 10790 10794 10797 10796 10795 10798 10802 10806
10468 10463 10459 10454 10449 10445 10442 10439 10436 10432 10430 10429 10428 10426 10425 10426 10426 10425 10426 10430 10430 10427 10430 10432 10432 10433 10435 10435 10438 10445 10453 10459 10461 10466 10475 10479 10482 10488 10492 10497 10507 10518 10523 10526 10532 10540 10552 10565 10578 10591 10604 10612 10619 10630 10635 10635 10638 10642 10643 10647 10653 10661 10672 10679 10681 10691 10709 10721 10723 10719 10725 10745 10766 10767 10757 10758 10767 10771 10775 10780 10785 10787 10785 10785 10788 10790 10794
10442 10438 10433 10429 10425 10421 10417 10415 10412 10409 10407 10405 10405 10404 10403 10404 10404 10404 10405 10407 10405 10405 10408 10410 10409 10411 10413 10415 10419 10424 10429 10433 10436 10440 10448 10454 10456 10459 10464 10470 10479 10489 10493 10494 10501 10516 10530 10543 10553 10568 10584 10593 10601 10611 10618 10620 10623 10626 10629 10635 10641 10647 10655 10662 10667 10675 10692 10706 10706 10707 10725 10746 10753 10750 10750 10754 10756 10758 10763 10770 10775 10775 10773 10775 10780 10784 10789
10421 10417 10412 10408 10404 10401 10397 10395 10392 10390 10388 10386 10386 10386 10385 10385 10385 10385 10387 10388 10385 10386 10389 10390 10390 10393 10397 10398 10402 10405 10408 10412 10415 10419 10425 10432 10435 10435 10440 10448 10457 10464 10466 10469 10478 10494 10508 10519 10529 10543 10560 10572 10581 10590 10598 10602 10605 10608 10615 10623 10628 10633 10640 10647 10652 10659 10675 10689 10694 10703 10720 10731 10735 10742 10746 10744 10743 10747 10752 10760 10767 10766 10762 10766 10774 10780 10785
10402 10398 10394 10390 10387 10383 10380 10378 10376 10374 10372 10370 10370 10371 10370 10370 10369 10370 10371 10371 10370 10371 10373 10374 10376 10380 10382 10383 10385 10388 10391 10394 10397 10401 10407 10414 10417 10417 10421 10429 10436 10441 10444 10450 10461 10474 10486 10496 10505 10518 10534 10547 10557 10567 10577 10582 10586 10593 10601 10608 10612 10617 10624 10631 10636 10645 10661 10676 10683 10691 10705 10719 10728 10734 10734 10732 10732 10736 10743 10751 10756 10754 10753 10759 10767 10773 10779
10386 10382 10378 10375 10372 10368 10366 10364 10362 10359 10358 10357 10356 10357 10357 10356 10356 10356 10357 10358 10357 10358 10360 10363 10365 10366 10367 10368 10371 10374 10376 10379 10383 10387 10392 10398 10400 10401 10404 10411 10418 10423 10427 10434 10445 10456 10465 10475 10485 10496 10510 10523 10536 10550 10559 10564 10569 10576 10582 10586 10592 10600 10607 10615 10624 10636 10651 10664 10670 10678 10695 10712 10718 10717 10720 10722 10718 10723 10736 10741 10740 10743 10748 10753 10760 10767 10771
10373 10369 10365 10361 10358 10355 10353 10351 10349 10347 10346 10344 10344 10344 10344 10343 10343 10343 10345 10346 10345 10345 10349 10352 10352 10352 10354 10356 10359 10361 10364 10367 10371 10375 10379 10384 10386 10387 10389 10396 10403 10409 10414 10421 10431 10440 10448 10458 10468 10477 10489 10505 10520 10532 10541 10546 10552 10558 10562 10568 10578 10587 10595 10604 10614 10626 10639 10650 10657 10668 10685 10699 10702 10703 10709 10709 10703 10712 10727 10729 10730 10740 10745 10746 10753 10761 10763
10361 10357 10353 10350 10347 10344 10342 10340 10338 10336 10335 10334 10333 10333 10333 10332 10333 10333 10334 10335 10334 10335 10339 10342 10340 10341 10344 10346 10348 10351 10354 10357 10361 10364 10367 10371 10373 10373 10377 10384 10391 10396 10402 10409 10418 10425 10432 10442 10452 10460 10473 10488 10501 10512 10523 10530 10536 10542 10549 10556 10563 10571 10584 10594 10599 10609 10624 10636 10646 10659 10672 10683 10688 10693 10697 10693 10692 10705 10718 10720 10726 10736 10739 10740 10746 10752 10755
10351 10348 10344 10340 10337 10334 10332 10330 10329 10327 10326 10325 10324 10324 10323 10323 10323 10324 10324 10325 10325 10326 10330 10331 10329 10331 10335 10337 10340 10343 10345 10348 10352 10354 10357 10360 10361 10363 10368 10375 10381 10387 10393 10398 10404 10411 10419 10429 10438 10447 10458 10470 10482 10496 10508 10515 10522 10531 10538 10543 10549 10559 10573 10583 10586 10594 10609 10624 10637 10648 10658 10669 10678 10682 10684 10685 10688 10698 10709 10715 10723 10732 10735 10735 10738 10742 10745
10343 10339 10336 10332 10329 10326 10324 10322 10321 10319 10318 10317 10316 10315 10315 10315 10315 10316 10316 10316 10316 10319 10322 10321 10320 10323 10328 10330 10333 10335 10337 10340 10343 10346 10349 10351 10353 10357 10362 10367 10371 10376 10382 10387 10393 10400 10409 10417 10425 10434 10444 10455 10468 10483 10494 10502 10513 10522 10527 10532 10539 10548 10559 10570 10576 10584 10599 10614 10627 10638 10648 10660 10668 10670 10673 10678 10682 10690 10702 10712 10720 10726 10728 10728 10727 10731 10734
10336 10332 10329 10326 10322 10320 10317 10315 10313 10312 10311 10309 10309 10308 10308 10308 10308 10308 10309 10309 10310 10312 10314 10313 10314 10318 10321 10323 10326 10328 10330 10332 10336 10338 10341 10344 10346 10349 10354 10358 10363 10368 10373 10379 10384 10391 10399 10407 10415 10423 10432 10443 10456 10470 10481 10491 10502 10509 10513 10520 10529 10536 10545 10558 10568 10579 10591 10602 10615 10630 10641 10650 10655 10658 10664 10672 10678 10686 10699 10708 10713 10716 10718 10719 10718 10719 10720
10330 10326 10322 10319 10316 10313 10311 10309 10307 10305 10304 10303 10302 10302 10301 10301 10302 10302 10302 10303 10304 10305 10306 10307 10309 10312 10315 10317 10319 10321 10324 10327 10329 10332 10334 10337 10340 10343 10347 10351 10355 10360 10366 10371 10376 10383 10390 10397 10404 10413 10421 10432 10445 10458 10468 10477 10486 10492 10497 10507 10517 10524 10534 10547 10560 10573 10582 10591 10607 10627 10638 10644 10650 10654 10661 10671 10678 10686 10694 10701 10704 10706 10709 10710 10710 10709 10709
10324 10320 10317 10314 10311 10308 10305 10303 10301 10300 10299 10298 10297 10296 10296 10296 10296 10296 10296 10298 10299 10300 10300 10302 10304 10307 10309 10310 10313 10316 10319 10321 10324 10326 10328 10331 10334 10337 10342 10346 10349 10354 10359 10364 10369 10375 10381 10387 10395 10404 10412 10421 10433 10445 10455 10464 10471 10477 10484 10495 10506 10514 10525 10538 10552 10565 10575 10584 10600 10620 10631 10639 10647 10653 10659 10668 10676 10680 10685 10691 10694 10696 10699 10701 10702 10702 10702
10320 10316 10313 10309 10306 10304 10301 10299 10297 10296 10294 10293 10293 10292 10291 10291 10291 10291 10291 10292 10294 10295 10296 10297 10299 10301 10303 10305 10308 10310 10313 10316 10318 10321 10323 10325 10328 10333 10337 10341 10344 10348 10353 10358 10363 10368 10373 10380 10388 10396 10404 10413 10423 10433 10443 10451 10458 10466 10475 10487 10498 10508 10519 10533 10545 10558 10568 10577 10591 10609 10621 10630 10642 10651 10656 10662 10667 10671 10676 10680 10683 10686 10690 10692 10693 10695 10696
10316 10312 10309 10306 10303 10300 10298 10296 10294 10292 10291 10290 10290 10289 10288 10288 10288 10288 10288 10289 10289 10291 10292 10293 10295 10297 10299 10301 10303 10306 10308 10311 10314 10317 10319 10321 10325 10328 10332 10336 10340 10344 10349 10354 10359 10364 10369 10375 10383 10390 10398 10406 10414 10424 10433 10441 10449 10458 10469 10481 10491 10501 10513 10526 10537 10549 10560 10571 10584 10599 10612 10622 10635 10645 10649 10651 10656 10662 10666 10669 10672 10676 10680 10681 10683 10686 10689
10313 10309 10306 10303 10300 10298 10295 10293 10291 10290 10289 10288 10287 10286 10286 10286 10286 10286 10286 10287 10287 10288 10289 10290 10292 10294 10295 10297 10300 10302 10305 10307 10310 10312 10315 10318 10320 10323 10327 10332 10336 10341 10345 10350 10355 10361 10366 10373 10379 10387 10394 10401 10408 10418 10428 10436 10444 10455 10465 10476 10486 10497 10508 10520 10531 10543 10556 10568 10578 10590 10603 10615 10627 10636 10640 10643 10648 10652 10656 10658 10662 10666 10670 10672 10674 10678 10681
10311 10308 10304 10301 10298 10296 10293 10291 10290 10288 10287 10286 10285 10285 10284 10284 10284 10284 10285 10286 10286 10287 10288 10289 10290 10291 10293 10295 10297 10300 10302 10305 10307 10309 10312 10314 10317 10320 10324 10329 10333 10337 10342 10347 10352 10358 10364 10370 10377 10384 10391 10397 10406 10416 10425 10433 10442 10452 10462 10472 10483 10494 10504 10515 10526 10539 10552 10562 10572 10584 10596 10607 10619 10629 10634 10636 10637 10640 10644 10648 10653 10657 10661 10664 10667 10671 10675
10309 10306 10303 10300 10297 10294 10292 10290 10288 10287 10286 10285 10284 10283 10283 10283 10283 10283 10283 10284 10285 10286 10287 10287 10288 10290 10291 10293 10295 10297 10300 10302 10305 10308 10310 10312 10316 10319 10322 10326 10330 10335 10340 10345 10351 10356 10362 10368 10376 10383 10390 10396 10404 10413 10422 10430 10440 10449 10458 10468 10479 10490 10501 10511 10524 10536 10547 10557 10569 10581 10591 10602 10614 10624 10628 10627 10628 10631 10635 10641 10645 10649 10653 10657 10661 10665 10669
10308 10305 10302 10299 10296 10294 10292 10290 10288 10286 10285 10285 10284 10283 10282 10282 10282 10282 10283 10283 10284 10285 10286 10287 10288 10289 10290 10292 10294 10296 10298 10301 10303 10306 10309 10312 10315 10318 10321 10325 10329 10334 10339 10344 10350 10356 10362 10368 10375 10382 10388 10395 10403 10411 10420 10428 10437 10446 10454 10466 10477 10487 10498 10509 10522 10534 10544 10555 10567 10578 10588 10598 10609 10616 10619 10621 10622 10625 10628 10633 10637 10641 10645 10650 10654 10658 10662
10308 10305 10302 10299 10296 10294 10292 10290 10289 10287 10286 10285 10284 10283 10283 10283 10283 10283 10284 10284 10285 10286 10287 10287 10288 10289 10291 10293 10295 10297 10299 10301 10303 10306 10308 10311 10314 10318 10321 10325 10329 10334 10339 10344 10350 10356 10362 10367 10373 10379 10387 10395 10403 10411 10419 10427 10436 10444 10454 10466 10476 10485 10496 10508 10519 10530 10541 10553 10565 10576 10585 10594 10602 10608 10613 10616 10618 10620 10623 10627 10630 10634 10638 10643 10647 10651 10654
10309 10305 10302 10300 10297 10295 10293 10291 10290 10289 10287 10286 10285 10285 10284 10284 10284 10285 10285 10285 10286 10287 10287 10288 10289 10290 10292 10294 10296 10298 10300 10302 10304 10307 10309 10312 10315 10318 10322 10326 10330 10335 10340 10345 10351 10356 10361 10367 10372 10378 10386 10394 10402 10409 10418 10426 10435 10444 10454 10464 10474 10484 10495 10507 10518 10529 10541 10552 10563 10572 10581 10590 10597 10603 10606 10609 10612 10616 10619 10622 10624 10627 10631 10636 10640 10644 10648
10310 10306 10304 10301 10299 10297 10295 10293 10292 10291 10289 10288 10287 10287 10287 10287 10287 10286 10286 10287 10287 10288 10289 10290 10291 10292 10294 10296 10298 10299 10301 10303 10306 10308 10311 10313 10316 10320 10324 10328 10332 10337 10342 10347 10352 10357 10362 10368 10374 10380 10387 10394 10401 10409 10418 10427 10435 10445 10455 10465 10474 10485 10497 10508 10519 10530 10541 10551 10561 10570 10578 10586 10592 10596 10598 10602 10606 10610 10613 10616 10619 10622 10626 10631 10635 10638 10641
10311 10308 10306 10303 10301 10299 10297 10296 10294 10293 10292 10290 10290 10289 10289 10289 10289 10289 10288 10289 10290 10290 10291 10292 10293 10295 10296 10298 10300 10301 10303 10305 10308 10310 10313 10316 10319 10323 10327 10331 10335 10340 10345 10350 10354 10360 10365 10370 10377 10383 10389 10396 10404 10412 10420 10429 10438 10447 10457 10467 10477 10487 10498 10509 10519 10529 10539 10549 10560 10569 10577 10583 10586 10590 10593 10597 10601 10605 10608 10611 10615 10618 10621 10625 10629 10632 10636
10314 10311 10308 10306 10304 10302 10300 10299 10297 10296 10295 10294 10293 10292 10292 10292 10292 10291 10291 10292 10293 10293 10294 10295 10297 10298 10300 10301 10303 10304 10306 10308 10310 10313 10316 10320 10323 10327 10330 10335 10340 10344 10349 10353 10358 10363 10369 10374 10380 10387 10393 10400 10408 10416 10424 10432 10441 10451 10460 10469 10478 10488 10499 10510 10520 10529 10538 10546 10554 10562 10568 10573 10577 10582 10587 10591 10596 10600 10603 10606 10609 10613 10616 10619 10623 10627 10631
10316 10314 10312 10310 10308 10306 10304 10302 10301 10300 10299 10298 10297 10296 10295 10295 10295 10295 10295 10296 10296 10297 10298 10299 10301 10302 10303 10305 10306 10308 10310 10312 10315 10318 10321 10324 10328 10332 10335 10340 10344 10349 10354 10358 10363 10368 10373 10379 10385 10392 10398 10405 10412 10420 10428 10436 10445 10454 10462 10472 10481 10491 10501 10511 10520 10528 10536 10543 10547 10552 10557 10563 10568 10574 10579 10585 10590 10594 10598 10601 10604 10608 10611 10614 10618 10622 10626
10320 10318 10315 10313 10312 10310 10308 10307 10305 10305 10304 10303 10302 10301 10300 10300 10300 10299 10300 10301 10301 10302 10302 10303 10305 10306 10307 10309 10310 10312 10314 10317 10320 10323 10326 10329 10333 10337 10341 10345 10350 10354 10359 10363 10368 10373 10379 10385 10391 10397 10404 10410 10417 10425 10432 10441 10449 10458 10467 10476 10485 10494 10503 10511 10518 10526 10534 10540 10545 10551 10556 10560 10565 10570 10575 10580 10585 10589 10593 10596 10600 10603 10607 10611 10614 10618 10621
10324 10322 10319 10318 10316 10314 10313 10311 10310 10309 10309 10307 10306 10306 10305 10305 10305 10305 10305 10306 10307 10307 10307 10308 10309 10311 10312 10313 10315 10317 10319 10322 10325 10328 10332 10335 10338 10342 10346 10350 10355 10360 10364 10369 10374 10379 10385 10390 10397 10403 10410 10417 10424 10431 10438 10446 10454 10463 10471 10480 10488 10496 10504 10511 10519 10526 10532 10537 10542 10547 10552 10557 10563 10568 10573 10577 10581 10585 10588 10592 10596 10600 10604 10607 10611 10614 10617
10328 10326 10324 10322 10321 10319 10317 10316 10315 10314 10314 10313 10312 10311 10311 10310 10310 10310 10310 10311 10312 10313 10313 10313 10315 10316 10317 10318 10320 10322 10324 10328 10331 10334 10337 10341 10344 10349 10353 10357 10361 10366 10370 10375 10380 10385 10391 10397 10403 10409 10416 10423 10429 10436 10443 10450 10458 10466 10475 10483 10490 10497 10504 10511 10518 10523 10528 10533 10538 10543 10549 10555 10560 10565 10569 10572 10576 10579 10584 10589 10593 10597 10600 10603 10606 10609 10611
10332 10331 10329 10327 10325 10323 10322 10321 10320 10320 10319 10318 10317 10317 10316 10316 10315 10315 10315 10316 10317 10318 10319 10319 10320 10320 10322 10324 10326 10328 10330 10334 10337 10340 10343 10347 10350 10355 10359 10363 10367 10372 10376 10381 10387 10392 10398 10404 10410 10416 10422 10429 10435 10441 10447 10455 10462 10470 10478 10485 10492 10499 10505 10510 10515 10519 10523 10528 10533 10539 10544 10549 10553 10558 10562 10566 10571 10575 10580 10585 10589 10592 10595 10598 10601 10604 10606
10337 10335 10333 10331 10330 10328 10327 10326 10325 10325 10324 10324 10323 10323 10322 10321 10321 10321 10321 10322 10323 10324 10325 10326 10326 10327 10328 10330 10332 10334 10336 10339 10342 10346 10349 10353 10357 10361 10365 10369 10373 10377 10382 10388 10394 10399 10404 10411 10417 10422 10428 10434 10440 10446 10452 10459 10466 10473 10480 10487 10494 10500 10505 10510 10514 10518 10523 10527 10531 10535 10540 10544 10549 10554 10559 10564 10569 10573 10578 10582 10585 10588 10590 10593 10596 10599 10602
10341 10339 10337 10336 10334 10333 10332 10331 10330 10329 10329 10329 10329 10328 10328 10327 10327 10326 10327 10328 10329 10329 10330 10332 10333 10334 10335 10336 10338 10341 10343 10346 10348 10352 10355 10359 10363 10367 10372 10376 10379 10383 10388 10394 10400 10405 10410 10416 10423 10428 10434 10439 10445 10451 10457 10463 10469 10475 10480 10487 10493 10498 10503 10507 10512 10517 10521 10524 10528 10532 10538 10543 10549 10555 10560 10563 10567 10571 10575 10578 10581 10583 10586 10589 10591 10594 10596
10345 10344 10342 10340 10338 10337 10336 10336 10335 10334 10333 10333 10333 10333 10334 10334 10333 10332 10332 10333 10333 10334 10335 10337 10339 10341 10342 10343 10346 10348 10351 10354 10356 10359 10362 10366 10369 10372 10376 10380 10384 10389 10394 10399 10405 10411 10416 10422 10428 10433 10439 10444 10449 10455 10461 10466 10471 10476 10481 10487 10493 10498 10503 10508 10512 10516 10519 10522 10526 10531 10536 10542 10547 10552 10556 10560 10564 10568 10571 10574 10577 10579 10582 10584 10586 10589 10591
10350 10348 10345 10344 10343 10342 10341 10340 10339 10338 10338 10338 10337 10338 10339 10340 10340 10339 10339 10339 10339 10341 10342 10343 10346 10348 10350 10351 10353 10356 10359 10362 10365 10367 10370 10374 10376 10379 10382 10385 10389 10394 10399 10404 10410 10417 10422 10426 10431 10437 10441 10446 10452 10457 10462 10467 10472 10477 10483 10489 10494 10499 10504 10508 10512 10516 10519 10522 10526 10531 10536 10541 10545 10549 10553 10557 10560 10564 10567 10570 10572 10575 10577 10579 10582 10584 10586
10354 10351 10349 10348 10348 10346 10345 10344 10343 10343 10343 10343 10343 10343 10344 10345 10345 10346 10347 10346 10346 10348 10350 10351 10352 10354 10357 10359 10361 10364 10367 10369 10372 10375 10378 10381 10384 10387 10390 10393 10396 10400 10405 10411 10416 10421 10425 10429 10434 10438 10443 10447 10453 10458 10463 10468 10473 10478 10483 10488 10494 10498 10503 10507 10510 10514 10517 10521 10525 10529 10534 10538 10542 10546 10550 10553 10556 10559 10562 10565 10567 10570 10572 10574 10576 10578 10581
10357 10354 10353 10354 10353 10351 10350 10350 10348 10348 10348 10348 10348 10349 10350 10351 10351 10353 10354 10353 10353 10355 10357 10358 10359 10361 10364 10366 10369 10371 10374 10376 10379 10381 10384 10387 10390 10392 10395 10398 10402 10407 10412 10417 10421 10425 10428 10432 10436 10439 10444 10449 10453 10458 10462 10467 10473 10478 10483 10487 10491 10496 10500 10503 10507 10511 10515 10518 10522 10526 10530 10534 10538 10542 10545 10549 10552 10555 10558 10560 10562 10564 10567 10569 10571 10573 10576
10361 10359 10358 10359 10358 10357 10356 10355 10354 10354 10353 10353 10354 10355 10356 10356 10357 10359 10360 10360 10360 10362 10364 10365 10366 10368 10370 10373 10375 10378 10380 10382 10385 10387 10390 10392 10395 10398 10400 10404 10408 10412 10417 10421 10425 10428 10431 10434 10437 10440 10444 10449 10453 10458 10463 10467 10471 10475 10480 10484 10488 10492 10496 10499 10503 10507 10510 10514 10518 10522 10526 10530 10534 10537 10541 10544 10547 10550 10552 10555 10557 10559 10561 10564 10566 10568 10570
10366 10364 10363 10363 10363 10362 10361 10360 10359 10359 10358 10358 10359 10360 10361 10362 10363 10363 10364 10365 10366 10367 10369 10371 10373 10374 10376 10378 10380 10383 10385 10387 10390 10392 10394 10397 10400 10403 10406 10409 10413 10416 10420 10424 10427 10430 10433 10436 10438 10440 10444 10448 10453 10457 10462 10466 10470 10473 10476 10480 10484 10488 10492 10496 10500 10503 10506 10510 10513 10517 10521 10525 10529 10532 10535 10538 10541 10544 10546 10549 10552 10554 10556 10558 10560 10562 10564
10370 10369 10368 10368 10367 10367 10366 10365 10364 10363 10363 10363 10364 10365 10367 10368 10368 10368 10369 10370 10371 10372 10373 10375 10377 10379 10381 10383 10385 10388 10389 10391 10394 10396 10398 10401 10405 10408 10411 10415 10418 10421 10424 10427 10430 10433 10435 10437 10439 10441 10444 10448 10452 10456 10460 10464 10467 10471 10474 10478 10481 10484 10489 10493 10497 10499 10502 10506 10509 10513 10516 10520 10523 10527 10530 10532 10535 10537 10540 10543 10545 10547 10550 10552 10554 10555 10557
10375 10374 10372 10372 10371 10371 10370 10369 10368 10368 10368 10369 10370 10371 10372 10373 10374 10374 10374 10375 10376 10377 10377 10379 10381 10384 10386 10388 10390 10393 10394 10396 10399 10401 10403 10406 10409 10412 10415 10418 10421 10424 10427 10429 10432 10434 10437 10438 10439 10441 10444 10448 10452 10455 10459 10462 10466 10469 10473 10476 10479 10482 10485 10489 10492 10495 10498 10502 10505 10509 10512 10515 10518 10521 10524 10526 10528 10531 10533 10536 10538 10540 10543 10546 10548 10550 10551
10380 10378 10377 10376 10376 10375 10374 10373 10373 10373 10373 10374 10375 10376 10377 10378 10378 10379 10379 10380 10381 10382 10383 10384 10386 10388 10390 10392 10395 10397 10399 10401 10403 10405 10408 10410 10413 10415 10418 10420 10423 10425 10428 10430 10432 10434 10436 10438 10439 10441 10444 10447 10451 10454 10458 10461 10465 10468 10470 10473 10476 10479 10482 10484 10487 10490 10494 10497 10500 10504 10507 10510 10513 10516 10518 10520 10522 10524 10527 10529 10532 10534 10536 10539 10542 10544 10545
10384 10383 10382 10381 10381 10380 10379 10377 10377 10377 10378 10378 10379 10380 10381 10381 10382 10383 10384 10384 10385 10386 10388 10389 10391 10393 10395 10396 10398 10401 10403 10405 10406 10408 10411 10413 10416 10418 10421 10423 10425 10426 10428 10430 10432 10434 10436 10438 10439 10441 10443 10446 10449 10453 10456 10460 10463 10466 10468 10470 10472 10475 10478 10481 10483 10486 10489 10492 10495 10499 10502 10505 10508 10510 10512 10514 10516 10519 10521 10523 10525 10528 10530 10532 10535 10537 10538
10387 10387 10386 10386 10385 10385 10383 10382 10382 10381 10382 10382 10383 10384 10385 10386 10387 10387 10388 10389 10389 10390 10392 10394 10396 10398 10399 10400 10401 10403 10406 10408 10410 10412 10414 10416 10417 10420 10422 10424 10427 10428 10430 10431 10433 10435 10437 10438 10440 10441 10443 10445 10448 10451 10454 10458 10461 10464 10466 10468 10470 10472 10475 10478 10480 10482 10484 10487 10491 10494 10497 10499 10502 10505 10507 10509 10511 10513 10515 10517 10519 10521 10524 10526 10528 10529 10531